Location: Augirein
(42.9320°N, 0.9181°E)
Time: 17:37:45
(UTC+00:00)

Cosmos 1763 Rocket - Pass Details

Date: 20 June 2021
Orbit: 732 x 781 km, 74.0° (Epoch: 30 July)

Event Time Altitude Azimuth Distance (km) Brightness Sun altitude
Exits shadow 01:15:44 36° 249° (WSW) 1,167 4.1 -21.3°
Maximum altitude 01:17:17 47° 295° (WNW) 975 4.0 -21.2°
Drops below altitude 10° 01:22:14 10° 9° (N) 2,269 7.1 -20.8°
Sets 01:24:42 0° 16° (NNE) 3,204 8.3 -20.7°
